Zurück zum Katalog

CZ-6A DEB

AktivPO
NORAD 61267·DEBRIS·🇨🇳 China

Gestartet Aug 6, 2024 von Taiyuan Satellite Launch Center

Loading…

Nächste Überflüge (nächste 24 Stunden)

TLE

AktuellSource: Space-Track

Epoche: Sep 14, 2026, 11:29 UTC

1 61267U 24140SC  26257.47870543  .00001018  00000-0  42668-3 0  9992
2 61267  89.1460 277.7589 0048705 287.0313  72.5546 14.24713657106573

Verfolge CZ-6A DEB in Echtzeit mit AllMySat

Download on the App Store